Regional Weather Roundup
Issued by NWS

Home | Current Version | Previous Version | Graphics & Text | Print | Product List | Glossary On
Versions: 1 2 3 4 5 6 7 8 9 10 11 12 13 14 15 16 17 18 19 20 21 22 23 24 25 26 27 28 29 30 31 32 33 34 35 36 37 38 39 40 41 42 43 44 45 46 47 48 49 50
590
ASUS44 KMEG 140710
RWRTN
TENNESSEE HOURLY STATE WEATHER ROUNDUP
NATIONAL WEATHER SERVICE MEMPHIS TN
100 AM CST SUN FEB 14 2016

TNZ002-004-019-021-049-052-054-088>092-140800-
WEST TENNESSEE

CITY           SKY/WX    TMP DP  RH WIND       PRES   REMARKS
MEMPHIS INTL   CLOUDY    30   9  41 E8        30.30F WCI  22
NWS MEMPHIS      N/A     28 N/A N/A MISG        N/A
JACKSON        CLOUDY    27   9  46 E7        30.34F WCI  19
DYERSBURG      CLOUDY    27  12  54 E5        30.36F WCI  21
UNION CITY     CLOUDY    27   9  46 E8        30.35F WCI  18
PARIS          CLOUDY    25   5  42 E7        30.37F WCI  17
LEXINGTON      CLEAR     27   3  36 E5        30.35F WCI  21
$$

TNZ008-025-027-028-033-062-065-066-140800-
NORTH MIDDLE TENNESSEE

CITY           SKY/WX    TMP DP  RH WIND       PRES   REMARKS
NASHVILLE      CLOUDY    27   4  37 E8        30.41F WCI  19
CLARKSVILLE    CLOUDY    25   8  48 E9        30.41F WCI  15
SMYRNA         MOCLDY    26   6  42 E7        30.43F WCI  18
COOKEVILLE     MOCLDY    23   9  54 E5        30.36F WCI  17
CROSSVILLE     CLOUDY    21   5  50 VRB3      30.34R
$$

TNZ061-075-076-078-094-096-097-140800-
SOUTH MIDDLE TENNESSEE

CITY           SKY/WX    TMP DP  RH WIND       PRES   REMARKS
FAYETTEVILLE   CLOUDY    25   9  50 NE7       30.35F WCI  17
TULLAHOMA      CLOUDY    25   5  42 E7        30.36F WCI  17
WINCHESTER     CLOUDY    25  16  68 E3        30.37F
MCMINNVILLE    CLOUDY    25   7  46 E6        30.38F WCI  18
COLUMBIA       CLOUDY    27   9  46 E9        30.37S WCI  17
SHELBYVILLE    CLOUDY    27  10  50 VRB5      30.39F WCI  21
$$

TNZ017-018-042-046-047-140800-
NORTHEAST TENNESSEE

CITY           SKY/WX    TMP DP  RH WIND       PRES   REMARKS
TRI CITIES     CLOUDY    12   4  70 CALM      30.38S
$$

TNZ012-013-036-069-073-074-140800-
CENTRAL EAST TENNESSEE

CITY           SKY/WX    TMP DP  RH WIND       PRES   REMARKS
KNOXVILLE      CLOUDY    21   7  54 NE9       30.39R WCI  11
OAK RIDGE      CLOUDY    21   6  52 VRB3      30.42R
GATLINBURG     SUNNY     14   9  79 CALM      30.39S
MORRISTOWN     SUNNY     16   7  67 NE6       30.37S WCI   7
$$

TNZ083-085-099-140800-
SOUTHEAST TENNESSEE

CITY           SKY/WX    TMP DP  RH WIND       PRES   REMARKS
CHATTANOOGA    CLOUDY    27   5  39 NE9       30.41R WCI  18
$$

SKY/WX REPORTED AS FAIR MEANS FEW OR NO CLOUDS BELOW
12 THOUSAND FEET.





USA.gov is the U.S. government's official web portal to all federal, state and local government web resources and services.